Wetterdaten: Dienstag, 18.08.2015
Datum Zeit Temp. A. Feuchte A. Luftdruck Regen Wind Richtung Richtung Sonnenschein ET UV Solar Taupunkt Windchill Windben Empfang
18.08.2015 00:02 15,0 C 86 % 1013,0 hPa 0,0 l/m 0,0 km/h (0 Bft) N-NO 29 0 min 0,000 mm 0,0 UV-I 0 W/m 12,7 C 15,0 C 0,0 km/h (0 Bft) 0,00 %
18.08.2015 00:07 15,0 C 86 % 1013,2 hPa 0,0 l/m 0,0 km/h (0 Bft) N-NO 19 0 min 0,000 mm 0,0 UV-I 0 W/m 12,7 C 15,0 C 0,0 km/h (0 Bft) 0,00 %
18.08.2015 00:12 15,0 C 86 % 1013,0 hPa 0,0 l/m 0,0 km/h (0 Bft) NO 41 0 min 0,000 mm 0,0 UV-I 0 W/m 12,7 C 15,0 C 0,0 km/h (0 Bft) 0,00 %
18.08.2015 00:17 14,9 C 87 % 1013,2 hPa 0,0 l/m 0,7 km/h (0 Bft) O-NO 58 0 min 0,000 mm 0,0 UV-I 0 W/m 12,8 C 14,9 C 4,0 km/h (1 Bft) 0,00 %
18.08.2015 00:22 14,9 C 88 % 1013,2 hPa 0,0 l/m 0,0 km/h (0 Bft) N-NO 31 0 min 0,000 mm 0,0 UV-I 0 W/m 12,9 C 14,9 C 0,0 km/h (0 Bft) 0,00 %
18.08.2015 00:27 14,9 C 88 % 1013,1 hPa 0,0 l/m 0,0 km/h (0 Bft) NO 39 0 min 0,000 mm 0,0 UV-I 0 W/m 12,9 C 14,9 C 0,0 km/h (0 Bft) 0,00 %
18.08.2015 00:32 14,9 C 87 % 1013,2 hPa 0,0 l/m 5,8 km/h (2 Bft) W-SW 255 0 min 0,000 mm 0,0 UV-I 0 W/m 12,8 C 14,9 C 7,9 km/h (2 Bft) 0,00 %
18.08.2015 00:37 14,9 C 86 % 1013,2 hPa 0,0 l/m 1,8 km/h (1 Bft) SW 223 0 min 0,000 mm 0,0 UV-I 0 W/m 12,6 C 14,9 C 4,0 km/h (1 Bft) 0,00 %
18.08.2015 00:42 14,9 C 85 % 1013,3 hPa 0,0 l/m 4,0 km/h (1 Bft) W-SW 251 0 min 0,000 mm 0,0 UV-I 0 W/m 12,4 C 14,9 C 4,0 km/h (1 Bft) 0,00 %
18.08.2015 00:47 14,9 C 84 % 1013,1 hPa 0,0 l/m 4,0 km/h (1 Bft) W-SW 256 0 min 0,000 mm 0,0 UV-I 0 W/m 12,2 C 14,9 C 7,9 km/h (2 Bft) 0,00 %
18.08.2015 00:52 14,9 C 84 % 1013,2 hPa 0,0 l/m 0,4 km/h (0 Bft) W-SW 255 0 min 0,000 mm 0,0 UV-I 0 W/m 12,2 C 14,9 C 4,0 km/h (1 Bft) 0,00 %
18.08.2015 00:57 15,0 C 85 % 1013,1 hPa 0,0 l/m 0,0 km/h (0 Bft) N-NO 13 0 min 0,000 mm 0,0 UV-I 0 W/m 12,5 C 15,0 C 0,0 km/h (0 Bft) 0,00 %
18.08.2015 01:02 14,9 C 85 % 1013,1 hPa 0,0 l/m 0,0 km/h (0 Bft) W-SW 256 0 min 0,000 mm 0,0 UV-I 0 W/m 12,4 C 14,9 C 0,0 km/h (0 Bft) 0,00 %
18.08.2015 01:07 14,9 C 86 % 1013,1 hPa 0,0 l/m 0,0 km/h (0 Bft) N-NW 332 0 min 0,000 mm 0,0 UV-I 0 W/m 12,6 C 14,9 C 0,0 km/h (0 Bft) 0,00 %
18.08.2015 01:12 14,9 C 87 % 1013,0 hPa 0,0 l/m 0,0 km/h (0 Bft) NO 38 0 min 0,000 mm 0,0 UV-I 0 W/m 12,8 C 14,9 C 0,0 km/h (0 Bft) 0,00 %
18.08.2015 01:17 14,9 C 87 % 1013,2 hPa 0,0 l/m 0,0 km/h (0 Bft) N 7 0 min 0,000 mm 0,0 UV-I 0 W/m 12,8 C 14,9 C 0,0 km/h (0 Bft) 0,00 %
18.08.2015 01:22 14,9 C 88 % 1013,2 hPa 0,0 l/m 0,0 km/h (0 Bft) W-NW 285 0 min 0,000 mm 0,0 UV-I 0 W/m 12,9 C 14,9 C 0,0 km/h (0 Bft) 0,00 %
18.08.2015 01:27 14,8 C 88 % 1013,0 hPa 0,0 l/m 0,0 km/h (0 Bft) NO 45 0 min 0,000 mm 0,0 UV-I 0 W/m 12,8 C 14,8 C 0,0 km/h (0 Bft) 0,00 %
18.08.2015 01:32 14,8 C 88 % 1013,1 hPa 0,0 l/m 0,0 km/h (0 Bft) W-NW 302 0 min 0,000 mm 0,0 UV-I 0 W/m 12,8 C 14,8 C 0,0 km/h (0 Bft) 0,00 %
18.08.2015 01:37 14,8 C 88 % 1013,0 hPa 0,0 l/m 0,0 km/h (0 Bft) NW 307 0 min 0,000 mm 0,0 UV-I 0 W/m 12,8 C 14,8 C 0,0 km/h (0 Bft) 0,00 %
18.08.2015 01:42 14,8 C 88 % 1013,2 hPa 0,0 l/m 0,0 km/h (0 Bft) N-NO 32 0 min 0,000 mm 0,0 UV-I 0 W/m 12,8 C 14,8 C 0,0 km/h (0 Bft) 0,00 %
18.08.2015 01:47 14,8 C 88 % 1013,1 hPa 0,0 l/m 0,0 km/h (0 Bft) N 349 0 min 0,000 mm 0,0 UV-I 0 W/m 12,8 C 14,8 C 0,0 km/h (0 Bft) 0,00 %
18.08.2015 01:52 14,7 C 88 % 1013,1 hPa 0,0 l/m 0,0 km/h (0 Bft) W-NW 286 0 min 0,000 mm 0,0 UV-I 0 W/m 12,7 C 14,7 C 0,0 km/h (0 Bft) 0,00 %
18.08.2015 01:57 14,7 C 88 % 1013,2 hPa 0,0 l/m 1,8 km/h (1 Bft) W-SW 255 0 min 0,000 mm 0,0 UV-I 0 W/m 12,7 C 14,7 C 4,0 km/h (1 Bft) 0,00 %
18.08.2015 02:02 14,7 C 89 % 1013,1 hPa 0,0 l/m 4,0 km/h (1 Bft) W-SW 256 0 min 0,000 mm 0,0 UV-I 0 W/m 12,9 C 14,7 C 7,9 km/h (2 Bft) 0,00 %
18.08.2015 02:07 14,6 C 90 % 1013,3 hPa 0,0 l/m 0,4 km/h (0 Bft) N-NO 22 0 min 0,000 mm 0,0 UV-I 0 W/m 13,0 C 14,6 C 4,0 km/h (1 Bft) 0,00 %
18.08.2015 02:12 14,6 C 90 % 1013,3 hPa 0,0 l/m 0,0 km/h (0 Bft) NO 47 0 min 0,000 mm 0,0 UV-I 0 W/m 13,0 C 14,6 C 0,0 km/h (0 Bft) 0,00 %
18.08.2015 02:17 14,6 C 90 % 1013,1 hPa 0,0 l/m 2,9 km/h (1 Bft) W-NW 293 0 min 0,000 mm 0,0 UV-I 0 W/m 13,0 C 14,6 C 4,0 km/h (1 Bft) 0,00 %
18.08.2015 02:22 14,6 C 90 % 1013,2 hPa 0,0 l/m 2,9 km/h (1 Bft) W-NW 285 0 min 0,000 mm 0,0 UV-I 0 W/m 13,0 C 14,6 C 4,0 km/h (1 Bft) 0,00 %
18.08.2015 02:27 14,6 C 90 % 1013,3 hPa 0,0 l/m 0,7 km/h (0 Bft) W-SW 256 0 min 0,000 mm 0,0 UV-I 0 W/m 13,0 C 14,6 C 4,0 km/h (1 Bft) 0,00 %
18.08.2015 02:32 14,6 C 89 % 1013,2 hPa 0,0 l/m 1,8 km/h (1 Bft) W-SW 256 0 min 0,000 mm 0,0 UV-I 0 W/m 12,8 C 14,6 C 4,0 km/h (1 Bft) 0,00 %
18.08.2015 02:37 14,6 C 89 % 1013,4 hPa 0,0 l/m 0,7 km/h (0 Bft) W-NW 297 0 min 0,000 mm 0,0 UV-I 0 W/m 12,8 C 14,6 C 4,0 km/h (1 Bft) 0,00 %
18.08.2015 02:42 14,5 C 89 % 1013,3 hPa 0,0 l/m 0,7 km/h (0 Bft) O-NO 73 0 min 0,000 mm 0,0 UV-I 0 W/m 12,7 C 14,5 C 4,0 km/h (1 Bft) 0,00 %
18.08.2015 02:47 14,5 C 89 % 1013,3 hPa 0,0 l/m 0,0 km/h (0 Bft) W-SW 254 0 min 0,000 mm 0,0 UV-I 0 W/m 12,7 C 14,5 C 0,0 km/h (0 Bft) 0,00 %
18.08.2015 02:52 14,5 C 89 % 1013,2 hPa 0,0 l/m 1,8 km/h (1 Bft) N 350 0 min 0,000 mm 0,0 UV-I 0 W/m 12,7 C 14,5 C 4,0 km/h (1 Bft) 0,00 %
18.08.2015 02:57 14,5 C 89 % 1013,3 hPa 0,0 l/m 0,0 km/h (0 Bft) NO 47 0 min 0,000 mm 0,0 UV-I 0 W/m 12,7 C 14,5 C 0,0 km/h (0 Bft) 0,00 %
18.08.2015 03:02 14,5 C 89 % 1013,2 hPa 0,0 l/m 0,7 km/h (0 Bft) N-NW 333 0 min 0,000 mm 0,0 UV-I 0 W/m 12,7 C 14,5 C 4,0 km/h (1 Bft) 0,00 %
18.08.2015 03:07 14,4 C 89 % 1013,3 hPa 0,0 l/m 0,0 km/h (0 Bft) N-NO 30 0 min 0,000 mm 0,0 UV-I 0 W/m 12,6 C 14,4 C 0,0 km/h (0 Bft) 0,00 %
18.08.2015 03:12 14,4 C 89 % 1013,3 hPa 0,0 l/m 0,0 km/h (0 Bft) N 354 0 min 0,000 mm 0,0 UV-I 0 W/m 12,6 C 14,4 C 0,0 km/h (0 Bft) 0,00 %
18.08.2015 03:17 14,3 C 90 % 1013,3 hPa 0,0 l/m 0,0 km/h (0 Bft) N-NO 26 0 min 0,000 mm 0,0 UV-I 0 W/m 12,7 C 14,3 C 0,0 km/h (0 Bft) 0,00 %
18.08.2015 03:22 14,3 C 90 % 1013,2 hPa 0,0 l/m 0,4 km/h (0 Bft) NO 53 0 min 0,000 mm 0,0 UV-I 0 W/m 12,7 C 14,3 C 4,0 km/h (1 Bft) 0,00 %
18.08.2015 03:27 14,2 C 90 % 1013,4 hPa 0,0 l/m 0,0 km/h (0 Bft) N-NO 29 0 min 0,000 mm 0,0 UV-I 0 W/m 12,6 C 14,2 C 0,0 km/h (0 Bft) 0,00 %
18.08.2015 03:32 14,2 C 90 % 1013,3 hPa 0,0 l/m 0,0 km/h (0 Bft) SW 222 0 min 0,000 mm 0,0 UV-I 0 W/m 12,6 C 14,2 C 0,0 km/h (0 Bft) 0,00 %
18.08.2015 03:37 14,1 C 91 % 1013,4 hPa 0,0 l/m 0,0 km/h (0 Bft) N-NW 341 0 min 0,000 mm 0,0 UV-I 0 W/m 12,7 C 14,1 C 0,0 km/h (0 Bft) 0,00 %
18.08.2015 03:42 14,1 C 91 % 1013,2 hPa 0,0 l/m 0,0 km/h (0 Bft) NO 50 0 min 0,000 mm 0,0 UV-I 0 W/m 12,7 C 14,1 C 0,0 km/h (0 Bft) 0,00 %
18.08.2015 03:47 14,0 C 91 % 1013,2 hPa 0,0 l/m 0,0 km/h (0 Bft) NO 48 0 min 0,000 mm 0,0 UV-I 0 W/m 12,6 C 14,0 C 0,0 km/h (0 Bft) 0,00 %
18.08.2015 03:52 14,0 C 91 % 1013,2 hPa 0,0 l/m 1,4 km/h (1 Bft) NW 317 0 min 0,000 mm 0,0 UV-I 0 W/m 12,6 C 14,0 C 4,0 km/h (1 Bft) 0,00 %
18.08.2015 03:57 13,9 C 92 % 1013,4 hPa 0,0 l/m 0,0 km/h (0 Bft) W-SW 255 0 min 0,000 mm 0,0 UV-I 0 W/m 12,6 C 13,9 C 0,0 km/h (0 Bft) 0,00 %
18.08.2015 04:02 13,9 C 92 % 1013,1 hPa 0,0 l/m 0,0 km/h (0 Bft) N-NW 345 0 min 0,000 mm 0,0 UV-I 0 W/m 12,6 C 13,9 C 0,0 km/h (0 Bft) 0,00 %
18.08.2015 04:07 13,8 C 92 % 1013,2 hPa 0,0 l/m 0,0 km/h (0 Bft) N 352 0 min 0,000 mm 0,0 UV-I 0 W/m 12,5 C 13,8 C 0,0 km/h (0 Bft) 0,00 %
18.08.2015 04:12 13,8 C 92 % 1013,3 hPa 0,0 l/m 1,8 km/h (1 Bft) W 277 0 min 0,000 mm 0,0 UV-I 0 W/m 12,5 C 13,8 C 4,0 km/h (1 Bft) 0,00 %
18.08.2015 04:17 13,8 C 92 % 1013,2 hPa 0,0 l/m 1,4 km/h (1 Bft) W-SW 238 0 min 0,000 mm 0,0 UV-I 0 W/m 12,5 C 13,8 C 4,0 km/h (1 Bft) 0,00 %
18.08.2015 04:22 13,8 C 92 % 1013,2 hPa 0,0 l/m 0,0 km/h (0 Bft) NO 50 0 min 0,000 mm 0,0 UV-I 0 W/m 12,5 C 13,8 C 0,0 km/h (0 Bft) 0,00 %
18.08.2015 04:27 13,8 C 92 % 1013,3 hPa 0,0 l/m 0,0 km/h (0 Bft) N-NO 31 0 min 0,000 mm 0,0 UV-I 0 W/m 12,5 C 13,8 C 0,0 km/h (0 Bft) 0,00 %
18.08.2015 04:32 13,8 C 92 % 1013,2 hPa 0,0 l/m 0,0 km/h (0 Bft) W-NW 296 0 min 0,000 mm 0,0 UV-I 0 W/m 12,5 C 13,8 C 0,0 km/h (0 Bft) 0,00 %
18.08.2015 04:37 13,8 C 92 % 1013,4 hPa 0,0 l/m 0,0 km/h (0 Bft) NW 314 0 min 0,000 mm 0,0 UV-I 0 W/m 12,5 C 13,8 C 0,0 km/h (0 Bft) 0,00 %
18.08.2015 04:42 13,8 C 92 % 1013,5 hPa 0,0 l/m 0,0 km/h (0 Bft) NW 316 0 min 0,000 mm 0,0 UV-I 0 W/m 12,5 C 13,8 C 0,0 km/h (0 Bft) 0,00 %
18.08.2015 04:47 13,8 C 93 % 1013,2 hPa 0,0 l/m 0,4 km/h (0 Bft) NW 313 0 min 0,000 mm 0,0 UV-I 0 W/m 12,7 C 13,8 C 4,0 km/h (1 Bft) 0,00 %
18.08.2015 04:52 13,9 C 93 % 1013,3 hPa 0,0 l/m 0,0 km/h (0 Bft) NO 52 0 min 0,000 mm 0,0 UV-I 0 W/m 12,8 C 13,9 C 0,0 km/h (0 Bft) 0,00 %
18.08.2015 04:57 13,9 C 92 % 1013,3 hPa 0,0 l/m 1,8 km/h (1 Bft) W 264 0 min 0,000 mm 0,0 UV-I 0 W/m 12,6 C 13,9 C 4,0 km/h (1 Bft) 0,00 %
18.08.2015 05:02 13,9 C 92 % 1013,3 hPa 0,0 l/m 0,0 km/h (0 Bft) NO 38 0 min 0,000 mm 0,0 UV-I 0 W/m 12,6 C 13,9 C 0,0 km/h (0 Bft) 0,00 %
18.08.2015 05:07 13,9 C 92 % 1013,3 hPa 0,0 l/m 0,0 km/h (0 Bft) NO 41 0 min 0,000 mm 0,0 UV-I 0 W/m 12,6 C 13,9 C 0,0 km/h (0 Bft) 0,00 %
18.08.2015 05:12 13,9 C 92 % 1013,3 hPa 0,0 l/m 0,0 km/h (0 Bft) NO 48 0 min 0,000 mm 0,0 UV-I 0 W/m 12,6 C 13,9 C 0,0 km/h (0 Bft) 0,00 %
18.08.2015 05:17 13,9 C 92 % 1013,3 hPa 0,0 l/m 0,0 km/h (0 Bft) NO 37 0 min 0,000 mm 0,0 UV-I 0 W/m 12,6 C 13,9 C 0,0 km/h (0 Bft) 0,00 %
18.08.2015 05:22 13,9 C 93 % 1013,4 hPa 0,0 l/m 0,0 km/h (0 Bft) N 353 0 min 0,000 mm 0,0 UV-I 0 W/m 12,8 C 13,9 C 0,0 km/h (0 Bft) 0,00 %
18.08.2015 05:27 13,9 C 93 % 1013,3 hPa 0,0 l/m 0,0 km/h (0 Bft) NO 34 0 min 0,000 mm 0,0 UV-I 0 W/m 12,8 C 13,9 C 0,0 km/h (0 Bft) 0,00 %
18.08.2015 05:32 13,9 C 93 % 1013,2 hPa 0,0 l/m 0,0 km/h (0 Bft) O-NO 66 0 min 0,000 mm 0,0 UV-I 0 W/m 12,8 C 13,9 C 0,0 km/h (0 Bft) 0,00 %
18.08.2015 05:37 13,9 C 93 % 1013,3 hPa 0,0 l/m 0,0 km/h (0 Bft) NO 49 0 min 0,000 mm 0,0 UV-I 0 W/m 12,8 C 13,9 C 0,0 km/h (0 Bft) 0,00 %
18.08.2015 05:42 13,9 C 93 % 1013,5 hPa 0,0 l/m 0,0 km/h (0 Bft) N 354 0 min 0,000 mm 0,0 UV-I 0 W/m 12,8 C 13,9 C 0,0 km/h (0 Bft) 0,00 %
18.08.2015 05:47 13,9 C 92 % 1013,3 hPa 0,0 l/m 0,0 km/h (0 Bft) N 4 0 min 0,000 mm 0,0 UV-I 0 W/m 12,6 C 13,9 C 0,0 km/h (0 Bft) 0,00 %
18.08.2015 05:52 13,9 C 92 % 1013,3 hPa 0,0 l/m 0,7 km/h (0 Bft) N-NW 345 0 min 0,000 mm 0,0 UV-I 0 W/m 12,6 C 13,9 C 4,0 km/h (1 Bft) 0,00 %
18.08.2015 05:57 14,0 C 92 % 1013,3 hPa 0,0 l/m 0,0 km/h (0 Bft) S-SW 210 0 min 0,000 mm 0,0 UV-I 0 W/m 12,7 C 14,0 C 0,0 km/h (0 Bft) 0,00 %
18.08.2015 06:02 14,0 C 92 % 1013,5 hPa 0,0 l/m 0,0 km/h (0 Bft) N-NW 341 0 min 0,000 mm 0,0 UV-I 0 W/m 12,7 C 14,0 C 0,0 km/h (0 Bft) 0,00 %
18.08.2015 06:07 14,0 C 92 % 1013,6 hPa 0,0 l/m 1,4 km/h (1 Bft) W-SW 255 0 min 0,000 mm 0,0 UV-I 0 W/m 12,7 C 14,0 C 4,0 km/h (1 Bft) 0,00 %
18.08.2015 06:12 14,0 C 92 % 1013,7 hPa 0,0 l/m 0,0 km/h (0 Bft) N 354 0 min 0,000 mm 0,0 UV-I 0 W/m 12,7 C 14,0 C 0,0 km/h (0 Bft) 0,00 %
18.08.2015 06:17 14,0 C 91 % 1013,5 hPa 0,0 l/m 0,0 km/h (0 Bft) NW 307 0 min 0,000 mm 0,0 UV-I 0 W/m 12,6 C 14,0 C 0,0 km/h (0 Bft) 0,00 %
18.08.2015 06:22 14,1 C 91 % 1013,6 hPa 0,0 l/m 0,0 km/h (0 Bft) N 354 0 min 0,000 mm 0,0 UV-I 0 W/m 12,7 C 14,1 C 0,0 km/h (0 Bft) 0,00 %
18.08.2015 06:27 14,1 C 91 % 1013,7 hPa 0,0 l/m 0,0 km/h (0 Bft) NO 35 0 min 0,000 mm 0,0 UV-I 2 W/m 12,7 C 14,1 C 0,0 km/h (0 Bft) 0,00 %
18.08.2015 06:32 14,1 C 91 % 1013,6 hPa 0,0 l/m 0,0 km/h (0 Bft) N-NO 20 0 min 0,000 mm 0,0 UV-I 5 W/m 12,7 C 14,1 C 0,0 km/h (0 Bft) 0,00 %
18.08.2015 06:37 14,1 C 91 % 1013,8 hPa 0,0 l/m 0,0 km/h (0 Bft) O-SO 119 0 min 0,000 mm 0,0 UV-I 9 W/m 12,7 C 14,1 C 0,0 km/h (0 Bft) 0,00 %
18.08.2015 06:42 14,1 C 91 % 1013,9 hPa 0,0 l/m 0,0 km/h (0 Bft) W-SW 256 0 min 0,000 mm 0,0 UV-I 18 W/m 12,7 C 14,1 C 0,0 km/h (0 Bft) 0,00 %
18.08.2015 06:47 14,1 C 91 % 1013,6 hPa 0,0 l/m 0,0 km/h (0 Bft) N 353 0 min 0,000 mm 0,0 UV-I 24 W/m 12,7 C 14,1 C 0,0 km/h (0 Bft) 0,00 %
18.08.2015 06:52 14,1 C 91 % 1013,8 hPa 0,0 l/m 0,4 km/h (0 Bft) W-NW 299 0 min 0,000 mm 0,0 UV-I 30 W/m 12,7 C 14,1 C 4,0 km/h (1 Bft) 0,00 %
18.08.2015 06:57 14,2 C 91 % 1013,7 hPa 0,0 l/m 0,0 km/h (0 Bft) N 351 0 min 0,000 mm 0,0 UV-I 34 W/m 12,8 C 14,2 C 0,0 km/h (0 Bft) 0,00 %
18.08.2015 07:02 14,2 C 91 % 1013,8 hPa 0,0 l/m 0,0 km/h (0 Bft) N-NW 346 0 min 0,000 mm 0,0 UV-I 38 W/m 12,8 C 14,2 C 0,0 km/h (0 Bft) 0,00 %
18.08.2015 07:07 14,3 C 91 % 1013,9 hPa 0,0 l/m 0,0 km/h (0 Bft) N-NO 33 0 min 0,000 mm 0,0 UV-I 43 W/m 12,8 C 14,3 C 0,0 km/h (0 Bft) 0,00 %
18.08.2015 07:12 14,3 C 91 % 1013,8 hPa 0,0 l/m 0,0 km/h (0 Bft) O-NO 57 0 min 0,000 mm 0,0 UV-I 53 W/m 12,8 C 14,3 C 0,0 km/h (0 Bft) 0,00 %
18.08.2015 07:17 14,4 C 91 % 1013,8 hPa 0,0 l/m 0,0 km/h (0 Bft) N-NW 341 0 min 0,000 mm 0,0 UV-I 58 W/m 12,9 C 14,4 C 0,0 km/h (0 Bft) 0,00 %
18.08.2015 07:22 14,4 C 90 % 1013,9 hPa 0,0 l/m 0,0 km/h (0 Bft) NO 42 0 min 0,000 mm 0,0 UV-I 69 W/m 12,8 C 14,4 C 0,0 km/h (0 Bft) 0,00 %
18.08.2015 07:27 14,5 C 90 % 1014,2 hPa 0,0 l/m 0,0 km/h (0 Bft) NO 41 0 min 0,000 mm 0,0 UV-I 73 W/m 12,9 C 14,5 C 0,0 km/h (0 Bft) 0,00 %
18.08.2015 07:32 14,6 C 90 % 1014,0 hPa 0,0 l/m 0,0 km/h (0 Bft) N-NW 335 0 min 0,000 mm 0,0 UV-I 73 W/m 13,0 C 14,6 C 0,0 km/h (0 Bft) 0,00 %
18.08.2015 07:37 14,7 C 90 % 1014,1 hPa 0,0 l/m 0,0 km/h (0 Bft) NO 34 0 min 0,000 mm 0,0 UV-I 72 W/m 13,1 C 14,7 C 0,0 km/h (0 Bft) 0,00 %
18.08.2015 07:42 14,8 C 90 % 1014,1 hPa 0,0 l/m 0,0 km/h (0 Bft) NW 310 0 min 0,000 mm 0,0 UV-I 77 W/m 13,2 C 14,8 C 0,0 km/h (0 Bft) 0,00 %
18.08.2015 07:47 14,9 C 88 % 1014,1 hPa 0,0 l/m 0,0 km/h (0 Bft) N-NW 348 0 min 0,000 mm 0,0 UV-I 81 W/m 12,9 C 14,9 C 0,0 km/h (0 Bft) 0,00 %
18.08.2015 07:52 15,0 C 88 % 1014,3 hPa 0,0 l/m 0,0 km/h (0 Bft) N-NO 32 0 min 0,000 mm 0,0 UV-I 89 W/m 13,0 C 15,0 C 0,0 km/h (0 Bft) 0,00 %
18.08.2015 07:57 15,0 C 88 % 1014,4 hPa 0,0 l/m 0,0 km/h (0 Bft) W 262 0 min 0,000 mm 1,0 UV-I 93 W/m 13,0 C 15,0 C 0,0 km/h (0 Bft) 0,00 %
18.08.2015 08:02 15,1 C 87 % 1014,3 hPa 0,0 l/m 0,0 km/h (0 Bft) N 350 0 min 0,000 mm 1,0 UV-I 102 W/m 13,0 C 15,1 C 0,0 km/h (0 Bft) 0,00 %
18.08.2015 08:07 15,2 C 88 % 1014,3 hPa 0,0 l/m 0,0 km/h (0 Bft) NW 326 0 min 0,000 mm 1,0 UV-I 97 W/m 13,2 C 15,2 C 0,0 km/h (0 Bft) 0,00 %
18.08.2015 08:12 15,2 C 87 % 1014,3 hPa 0,0 l/m 0,0 km/h (0 Bft) O-NO 62 0 min 0,000 mm 1,0 UV-I 122 W/m 13,0 C 15,2 C 0,0 km/h (0 Bft) 0,00 %
18.08.2015 08:17 15,3 C 87 % 1014,4 hPa 0,0 l/m 0,0 km/h (0 Bft) NO 37 0 min 0,000 mm 1,0 UV-I 138 W/m 13,1 C 15,3 C 0,0 km/h (0 Bft) 0,00 %
18.08.2015 08:22 15,4 C 86 % 1014,2 hPa 0,0 l/m 0,0 km/h (0 Bft) NO 36 0 min 0,000 mm 1,0 UV-I 133 W/m 13,1 C 15,4 C 0,0 km/h (0 Bft) 0,00 %
18.08.2015 08:27 15,6 C 85 % 1014,3 hPa 0,0 l/m 0,0 km/h (0 Bft) NO 55 5 min 0,000 mm 1,0 UV-I 214 W/m 13,1 C 15,6 C 0,0 km/h (0 Bft) 0,00 %
18.08.2015 08:32 15,8 C 83 % 1014,3 hPa 0,0 l/m 0,0 km/h (0 Bft) N 2 0 min 0,000 mm 1,0 UV-I 219 W/m 12,9 C 15,8 C 0,0 km/h (0 Bft) 0,00 %
18.08.2015 08:37 16,1 C 82 % 1014,3 hPa 0,0 l/m 0,0 km/h (0 Bft) O-NO 70 0 min 0,000 mm 1,0 UV-I 220 W/m 13,0 C 16,1 C 0,0 km/h (0 Bft) 0,00 %
18.08.2015 08:42 16,4 C 80 % 1014,3 hPa 0,0 l/m 0,4 km/h (0 Bft) W-SW 256 0 min 0,000 mm 1,0 UV-I 231 W/m 12,9 C 16,4 C 4,0 km/h (1 Bft) 0,00 %
18.08.2015 08:47 16,6 C 79 % 1014,2 hPa 0,0 l/m 0,0 km/h (0 Bft) NO 47 5 min 0,000 mm 1,0 UV-I 260 W/m 12,9 C 16,6 C 0,0 km/h (0 Bft) 0,00 %
18.08.2015 08:52 16,9 C 76 % 1014,2 hPa 0,0 l/m 0,0 km/h (0 Bft) N-NO 31 5 min 0,000 mm 1,0 UV-I 272 W/m 12,6 C 16,9 C 0,0 km/h (0 Bft) 0,00 %
18.08.2015 08:57 17,2 C 74 % 1014,4 hPa 0,0 l/m 4,0 km/h (1 Bft) W-SW 257 5 min 0,000 mm 1,0 UV-I 262 W/m 12,5 C 17,2 C 7,9 km/h (2 Bft) 0,00 %
18.08.2015 09:02 17,4 C 75 % 1014,6 hPa 0,0 l/m 0,0 km/h (0 Bft) N 355 5 min 0,000 mm 1,0 UV-I 289 W/m 12,9 C 17,4 C 0,0 km/h (0 Bft) 0,00 %
18.08.2015 09:07 17,5 C 74 % 1014,6 hPa 0,0 l/m 0,0 km/h (0 Bft) NO 49 5 min 0,000 mm 1,0 UV-I 368 W/m 12,8 C 17,5 C 0,0 km/h (0 Bft) 0,00 %
18.08.2015 09:12 18,0 C 71 % 1014,6 hPa 0,0 l/m 1,8 km/h (1 Bft) W-NW 299 5 min 0,000 mm 1,0 UV-I 325 W/m 12,7 C 18,0 C 4,0 km/h (1 Bft) 0,00 %
18.08.2015 09:17 18,5 C 69 % 1014,5 hPa 0,0 l/m 0,0 km/h (0 Bft) N 355 0 min 0,000 mm 1,0 UV-I 269 W/m 12,7 C 18,5 C 0,0 km/h (0 Bft) 0,00 %
18.08.2015 09:22 18,4 C 69 % 1014,5 hPa 0,0 l/m 0,0 km/h (0 Bft) N-NO 23 5 min 0,000 mm 1,0 UV-I 329 W/m 12,6 C 18,4 C 0,0 km/h (0 Bft) 0,00 %
18.08.2015 09:27 18,5 C 67 % 1014,4 hPa 0,0 l/m 4,7 km/h (1 Bft) W 281 5 min 0,000 mm 2,0 UV-I 414 W/m 12,3 C 18,5 C 7,9 km/h (2 Bft) 0,00 %
18.08.2015 09:32 18,7 C 67 % 1014,4 hPa 0,0 l/m 0,0 km/h (0 Bft) N 355 5 min 0,000 mm 1,0 UV-I 334 W/m 12,4 C 18,7 C 0,0 km/h (0 Bft) 0,00 %
18.08.2015 09:37 19,1 C 63 % 1014,3 hPa 0,0 l/m 0,0 km/h (0 Bft) N 357 5 min 0,000 mm 2,0 UV-I 343 W/m 11,9 C 19,1 C 0,0 km/h (0 Bft) 0,00 %
18.08.2015 09:42 19,5 C 63 % 1014,4 hPa 0,0 l/m 4,0 km/h (1 Bft) N-NO 20 5 min 0,000 mm 2,0 UV-I 335 W/m 12,3 C 19,5 C 7,9 km/h (2 Bft) 0,00 %
18.08.2015 09:47 19,6 C 63 % 1014,5 hPa 0,0 l/m 0,0 km/h (0 Bft) N-NO 32 5 min 0,000 mm 2,0 UV-I 321 W/m 12,4 C 19,6 C 0,0 km/h (0 Bft) 0,00 %
18.08.2015 09:52 19,6 C 62 % 1014,6 hPa 0,0 l/m 0,7 km/h (0 Bft) W 275 5 min 0,000 mm 2,0 UV-I 403 W/m 12,1 C 19,6 C 4,0 km/h (1 Bft) 0,00 %
18.08.2015 09:57 19,6 C 62 % 1014,4 hPa 0,0 l/m 0,0 km/h (0 Bft) NO 41 5 min 0,000 mm 2,0 UV-I 476 W/m 12,1 C 19,6 C 0,0 km/h (0 Bft) 0,00 %
18.08.2015 10:02 19,8 C 59 % 1014,5 hPa 0,0 l/m 0,7 km/h (0 Bft) N-NW 328 5 min 0,000 mm 2,0 UV-I 370 W/m 11,6 C 19,8 C 4,0 km/h (1 Bft) 0,00 %
18.08.2015 10:07 20,0 C 60 % 1014,5 hPa 0,0 l/m 0,0 km/h (0 Bft) N-NW 346 0 min 0,000 mm 2,0 UV-I 310 W/m 12,0 C 20,0 C 0,0 km/h (0 Bft) 0,00 %
18.08.2015 10:12 20,1 C 59 % 1014,5 hPa 0,0 l/m 0,7 km/h (0 Bft) W-NW 290 5 min 0,000 mm 2,0 UV-I 395 W/m 11,8 C 20,1 C 4,0 km/h (1 Bft) 0,00 %
18.08.2015 10:17 20,4 C 58 % 1014,5 hPa 0,0 l/m 0,0 km/h (0 Bft) NO 46 5 min 0,000 mm 2,0 UV-I 378 W/m 11,9 C 20,4 C 0,0 km/h (0 Bft) 0,00 %
18.08.2015 10:22 20,6 C 58 % 1014,6 hPa 0,0 l/m 0,0 km/h (0 Bft) NO 45 0 min 0,000 mm 1,0 UV-I 266 W/m 12,0 C 20,6 C 0,0 km/h (0 Bft) 0,00 %
18.08.2015 10:27 20,6 C 59 % 1014,7 hPa 0,0 l/m 0,0 km/h (0 Bft) NO 51 5 min 0,000 mm 2,0 UV-I 368 W/m 12,3 C 20,6 C 0,0 km/h (0 Bft) 0,00 %
18.08.2015 10:32 20,5 C 58 % 1014,6 hPa 0,0 l/m 2,9 km/h (1 Bft) W 273 0 min 0,000 mm 1,0 UV-I 256 W/m 11,9 C 20,5 C 4,0 km/h (1 Bft) 0,00 %
18.08.2015 10:37 20,4 C 59 % 1014,7 hPa 0,0 l/m 0,0 km/h (0 Bft) NO 44 5 min 0,000 mm 2,0 UV-I 631 W/m 12,1 C 20,4 C 0,0 km/h (0 Bft) 0,00 %
18.08.2015 10:42 20,5 C 58 % 1014,7 hPa 0,0 l/m 0,0 km/h (0 Bft) NO 52 5 min 0,000 mm 3,0 UV-I 652 W/m 11,9 C 20,5 C 0,0 km/h (0 Bft) 0,00 %
18.08.2015 10:47 21,2 C 55 % 1014,6 hPa 0,0 l/m 4,3 km/h (1 Bft) NW 323 0 min 0,000 mm 2,0 UV-I 355 W/m 11,8 C 21,2 C 7,9 km/h (2 Bft) 0,00 %
18.08.2015 10:52 21,6 C 56 % 1014,7 hPa 0,0 l/m 4,0 km/h (1 Bft) NW 310 0 min 0,000 mm 1,0 UV-I 227 W/m 12,4 C 21,6 C 4,0 km/h (1 Bft) 0,00 %
18.08.2015 10:57 21,1 C 59 % 1014,5 hPa 0,0 l/m 0,0 km/h (0 Bft) N 354 0 min 0,000 mm 1,0 UV-I 205 W/m 12,8 C 21,1 C 0,0 km/h (0 Bft) 0,00 %
18.08.2015 11:02 20,2 C 60 % 1014,6 hPa 0,0 l/m 0,0 km/h (0 Bft) NO 43 5 min 0,000 mm 3,0 UV-I 596 W/m 12,2 C 20,2 C 0,0 km/h (0 Bft) 0,00 %
18.08.2015 11:07 20,1 C 60 % 1014,5 hPa 0,0 l/m 0,0 km/h (0 Bft) O-NO 57 5 min 0,000 mm 3,0 UV-I 578 W/m 12,1 C 20,1 C 0,0 km/h (0 Bft) 0,00 %
18.08.2015 11:12 20,6 C 53 % 1014,4 hPa 0,0 l/m 0,0 km/h (0 Bft) NO 54 5 min 0,000 mm 3,0 UV-I 677 W/m 10,7 C 20,6 C 0,0 km/h (0 Bft) 0,00 %
18.08.2015 11:17 21,0 C 52 % 1014,4 hPa 0,0 l/m 0,0 km/h (0 Bft) N-NO 14 5 min 0,000 mm 3,0 UV-I 728 W/m 10,8 C 21,0 C 0,0 km/h (0 Bft) 0,00 %
18.08.2015 11:22 21,4 C 54 % 1014,5 hPa 0,0 l/m 0,0 km/h (0 Bft) NO 39 5 min 0,000 mm 3,0 UV-I 784 W/m 11,7 C 21,4 C 0,0 km/h (0 Bft) 0,00 %
18.08.2015 11:27 21,8 C 48 % 1014,4 hPa 0,0 l/m 0,4 km/h (0 Bft) N 352 5 min 0,000 mm 3,0 UV-I 707 W/m 10,3 C 21,8 C 4,0 km/h (1 Bft) 0,00 %
18.08.2015 11:32 22,0 C 49 % 1014,5 hPa 0,0 l/m 0,0 km/h (0 Bft) N 3 5 min 0,000 mm 2,0 UV-I 426 W/m 10,8 C 22,0 C 0,0 km/h (0 Bft) 0,00 %
18.08.2015 11:37 21,8 C 50 % 1014,5 hPa 0,0 l/m 0,0 km/h (0 Bft) N 349 0 min 0,000 mm 2,0 UV-I 385 W/m 10,9 C 21,8 C 0,0 km/h (0 Bft) 0,00 %
18.08.2015 11:42 21,6 C 50 % 1014,4 hPa 0,0 l/m 1,8 km/h (1 Bft) W-NW 297 5 min 0,000 mm 2,0 UV-I 444 W/m 10,7 C 21,6 C 4,0 km/h (1 Bft) 0,00 %
18.08.2015 11:47 21,5 C 51 % 1014,5 hPa 0,0 l/m 0,0 km/h (0 Bft) NO 34 5 min 0,000 mm 3,0 UV-I 831 W/m 10,9 C 21,5 C 0,0 km/h (0 Bft) 0,00 %
18.08.2015 11:52 21,7 C 50 % 1014,5 hPa 0,0 l/m 0,0 km/h (0 Bft) NO 39 0 min 0,000 mm 2,0 UV-I 327 W/m 10,8 C 21,7 C 0,0 km/h (0 Bft) 0,00 %
18.08.2015 11:57 21,9 C 50 % 1014,4 hPa 0,0 l/m 0,0 km/h (0 Bft) N 354 0 min 0,000 mm 1,0 UV-I 292 W/m 11,0 C 21,9 C 0,0 km/h (0 Bft) 0,00 %
18.08.2015 12:02 21,6 C 50 % 1014,6 hPa 0,0 l/m 0,0 km/h (0 Bft) O-NO 66 0 min 0,000 mm 1,0 UV-I 316 W/m 10,7 C 21,6 C 0,0 km/h (0 Bft) 0,00 %
18.08.2015 12:07 21,4 C 51 % 1014,4 hPa 0,0 l/m 0,7 km/h (0 Bft) NO 36 0 min 0,000 mm 1,0 UV-I 239 W/m 10,8 C 21,4 C 4,0 km/h (1 Bft) 0,00 %
18.08.2015 12:12 21,1 C 51 % 1014,3 hPa 0,0 l/m 0,0 km/h (0 Bft) NO 42 0 min 0,000 mm 1,0 UV-I 279 W/m 10,6 C 21,1 C 0,0 km/h (0 Bft) 0,00 %
18.08.2015 12:17 20,6 C 53 % 1014,4 hPa 0,0 l/m 4,3 km/h (1 Bft) W-SW 255 0 min 0,000 mm 2,0 UV-I 348 W/m 10,7 C 20,6 C 7,9 km/h (2 Bft) 0,00 %
18.08.2015 12:23 20,4 C 54 % 1014,4 hPa 0,0 l/m 0,0 km/h (0 Bft) NO 44 0 min 0,000 mm 2,0 UV-I 352 W/m 10,8 C 20,4 C 0,0 km/h (0 Bft) 0,00 %
18.08.2015 12:28 20,5 C 53 % 1014,6 hPa 0,0 l/m 0,0 km/h (0 Bft) NO 46 0 min 0,000 mm 2,0 UV-I 348 W/m 10,6 C 20,5 C 0,0 km/h (0 Bft) 0,00 %
18.08.2015 12:33 20,7 C 52 % 1014,5 hPa 0,0 l/m 1,4 km/h (1 Bft) W 265 0 min 0,000 mm 1,0 UV-I 296 W/m 10,5 C 20,7 C 4,0 km/h (1 Bft) 0,00 %
18.08.2015 12:38 20,8 C 53 % 1014,5 hPa 0,0 l/m 0,0 km/h (0 Bft) NO 44 0 min 0,000 mm 2,0 UV-I 288 W/m 10,9 C 20,8 C 0,0 km/h (0 Bft) 0,00 %
18.08.2015 12:43 20,8 C 54 % 1014,4 hPa 0,0 l/m 0,0 km/h (0 Bft) NO 47 0 min 0,000 mm 2,0 UV-I 312 W/m 11,1 C 20,8 C 0,0 km/h (0 Bft) 0,00 %
18.08.2015 12:48 20,9 C 53 % 1014,5 hPa 0,0 l/m 0,0 km/h (0 Bft) N 350 0 min 0,000 mm 1,0 UV-I 276 W/m 11,0 C 20,9 C 0,0 km/h (0 Bft) 0,00 %
18.08.2015 12:53 21,1 C 50 % 1014,4 hPa 0,0 l/m 0,0 km/h (0 Bft) NO 50 0 min 0,000 mm 1,0 UV-I 239 W/m 10,3 C 21,1 C 0,0 km/h (0 Bft) 0,00 %
18.08.2015 12:58 21,2 C 51 % 1014,5 hPa 0,0 l/m 0,0 km/h (0 Bft) NO 43 0 min 0,000 mm 1,0 UV-I 229 W/m 10,7 C 21,2 C 0,0 km/h (0 Bft) 0,00 %
18.08.2015 13:03 21,1 C 50 % 1014,4 hPa 0,0 l/m 1,4 km/h (1 Bft) SW 227 0 min 0,000 mm 1,0 UV-I 238 W/m 10,3 C 21,1 C 4,0 km/h (1 Bft) 0,00 %
18.08.2015 13:08 20,9 C 52 % 1014,3 hPa 0,0 l/m 0,0 km/h (0 Bft) O-NO 65 0 min 0,000 mm 1,0 UV-I 287 W/m 10,7 C 20,9 C 0,0 km/h (0 Bft) 0,00 %
18.08.2015 13:13 20,5 C 54 % 1014,6 hPa 0,0 l/m 0,7 km/h (0 Bft) N-NW 331 0 min 0,000 mm 1,0 UV-I 331 W/m 10,9 C 20,5 C 4,0 km/h (1 Bft) 0,00 %
18.08.2015 13:18 20,4 C 54 % 1014,4 hPa 0,0 l/m 2,2 km/h (1 Bft) W-NW 294 0 min 0,000 mm 2,0 UV-I 371 W/m 10,8 C 20,4 C 4,0 km/h (1 Bft) 0,00 %
18.08.2015 13:23 20,7 C 55 % 1014,3 hPa 0,0 l/m 0,0 km/h (0 Bft) W-NW 294 0 min 0,000 mm 2,0 UV-I 425 W/m 11,3 C 20,7 C 0,0 km/h (0 Bft) 0,00 %
18.08.2015 13:28 21,0 C 52 % 1014,4 hPa 0,0 l/m 1,4 km/h (1 Bft) W-SW 254 5 min 0,000 mm 2,0 UV-I 509 W/m 10,8 C 21,0 C 4,0 km/h (1 Bft) 0,00 %
18.08.2015 13:33 21,5 C 52 % 1014,4 hPa 0,0 l/m 0,0 km/h (0 Bft) NO 40 5 min 0,000 mm 2,0 UV-I 488 W/m 11,2 C 21,5 C 0,0 km/h (0 Bft) 0,00 %
18.08.2015 13:38 22,1 C 50 % 1014,4 hPa 0,0 l/m 0,7 km/h (0 Bft) N-NW 344 5 min 0,000 mm 2,0 UV-I 523 W/m 11,2 C 22,1 C 4,0 km/h (1 Bft) 0,00 %
18.08.2015 13:43 22,6 C 50 % 1014,6 hPa 0,0 l/m 0,0 km/h (0 Bft) N 353 5 min 0,000 mm 2,0 UV-I 491 W/m 11,6 C 22,6 C 0,0 km/h (0 Bft) 0,00 %
18.08.2015 13:48 22,7 C 46 % 1014,2 hPa 0,0 l/m 0,0 km/h (0 Bft) NO 34 5 min 0,000 mm 2,0 UV-I 486 W/m 10,5 C 22,7 C 0,0 km/h (0 Bft) 0,00 %
18.08.2015 13:53 22,8 C 46 % 1014,3 hPa 0,0 l/m 0,0 km/h (0 Bft) NO 49 5 min 0,000 mm 2,0 UV-I 442 W/m 10,6 C 22,8 C 0,0 km/h (0 Bft) 0,00 %
18.08.2015 13:58 22,6 C 49 % 1014,3 hPa 0,0 l/m 0,0 km/h (0 Bft) NO 52 5 min 0,000 mm 3,0 UV-I 494 W/m 11,3 C 22,6 C 0,0 km/h (0 Bft) 0,00 %
18.08.2015 14:03 22,3 C 49 % 1014,2 hPa 0,0 l/m 1,4 km/h (1 Bft) NO 40 5 min 0,000 mm 4,0 UV-I 895 W/m 11,1 C 22,3 C 4,0 km/h (1 Bft) 0,00 %
18.08.2015 14:08 22,4 C 47 % 1014,3 hPa 0,0 l/m 0,0 km/h (0 Bft) N 358 5 min 0,000 mm 4,0 UV-I 901 W/m 10,5 C 22,4 C 0,0 km/h (0 Bft) 0,00 %
18.08.2015 14:13 22,9 C 47 % 1014,1 hPa 0,0 l/m 0,0 km/h (0 Bft) N-NW 348 5 min 0,000 mm 3,0 UV-I 838 W/m 11,0 C 22,9 C 0,0 km/h (0 Bft) 0,00 %
18.08.2015 14:18 23,4 C 47 % 1014,3 hPa 0,0 l/m 1,8 km/h (1 Bft) S-SW 203 0 min 0,000 mm 2,0 UV-I 314 W/m 11,4 C 23,4 C 4,0 km/h (1 Bft) 0,00 %
18.08.2015 14:23 23,4 C 47 % 1014,3 hPa 0,0 l/m 0,0 km/h (0 Bft) NO 50 5 min 0,000 mm 3,0 UV-I 837 W/m 11,4 C 23,4 C 0,0 km/h (0 Bft) 0,00 %
18.08.2015 14:28 23,2 C 44 % 1014,1 hPa 0,0 l/m 2,2 km/h (1 Bft) N-NO 25 5 min 0,000 mm 3,0 UV-I 870 W/m 10,3 C 23,2 C 4,0 km/h (1 Bft) 0,00 %
18.08.2015 14:33 23,1 C 46 % 1014,1 hPa 0,0 l/m 0,0 km/h (0 Bft) O-NO 57 5 min 0,000 mm 3,0 UV-I 848 W/m 10,8 C 23,1 C 0,0 km/h (0 Bft) 0,00 %
18.08.2015 14:38 23,4 C 44 % 1014,1 hPa 0,0 l/m 0,4 km/h (0 Bft) N 350 0 min 0,000 mm 2,0 UV-I 276 W/m 10,4 C 23,4 C 4,0 km/h (1 Bft) 0,00 %
18.08.2015 14:43 23,5 C 44 % 1014,2 hPa 0,0 l/m 2,9 km/h (1 Bft) NW 315 5 min 0,000 mm 3,0 UV-I 865 W/m 10,5 C 23,5 C 7,9 km/h (2 Bft) 0,00 %
18.08.2015 14:48 23,3 C 43 % 1014,0 hPa 0,0 l/m 0,0 km/h (0 Bft) O-NO 63 5 min 0,000 mm 3,0 UV-I 909 W/m 10,0 C 23,3 C 0,0 km/h (0 Bft) 0,00 %
18.08.2015 14:53 23,4 C 43 % 1014,3 hPa 0,0 l/m 0,0 km/h (0 Bft) NO 43 5 min 0,000 mm 3,0 UV-I 721 W/m 10,1 C 23,4 C 0,0 km/h (0 Bft) 0,00 %
18.08.2015 14:58 23,9 C 42 % 1014,3 hPa 0,0 l/m 0,0 km/h (0 Bft) N 352 5 min 0,000 mm 3,0 UV-I 895 W/m 10,2 C 23,9 C 0,0 km/h (0 Bft) 0,00 %
18.08.2015 15:03 24,2 C 42 % 1014,2 hPa 0,0 l/m 5,4 km/h (1 Bft) W-SW 256 5 min 0,000 mm 3,0 UV-I 938 W/m 10,5 C 24,2 C 7,9 km/h (2 Bft) 0,00 %
18.08.2015 15:08 24,5 C 42 % 1014,3 hPa 0,0 l/m 0,0 km/h (0 Bft) N-NW 332 5 min 0,000 mm 3,0 UV-I 942 W/m 10,7 C 24,5 C 0,0 km/h (0 Bft) 0,00 %
18.08.2015 15:13 24,8 C 41 % 1014,2 hPa 0,0 l/m 0,0 km/h (0 Bft) NO 36 5 min 0,000 mm 3,0 UV-I 952 W/m 10,6 C 24,8 C 0,0 km/h (0 Bft) 0,00 %
18.08.2015 15:18 24,9 C 41 % 1014,0 hPa 0,0 l/m 0,4 km/h (0 Bft) N 350 5 min 0,000 mm 2,0 UV-I 485 W/m 10,7 C 24,9 C 4,0 km/h (1 Bft) 0,00 %
18.08.2015 15:23 24,6 C 41 % 1014,1 hPa 0,0 l/m 0,7 km/h (0 Bft) NO 38 5 min 0,000 mm 2,0 UV-I 525 W/m 10,5 C 24,6 C 4,0 km/h (1 Bft) 0,00 %
18.08.2015 15:28 24,4 C 42 % 1014,0 hPa 0,0 l/m 0,0 km/h (0 Bft) NO 40 5 min 0,000 mm 3,0 UV-I 987 W/m 10,6 C 24,4 C 0,0 km/h (0 Bft) 0,00 %
18.08.2015 15:33 24,6 C 40 % 1014,3 hPa 0,0 l/m 0,0 km/h (0 Bft) N 353 5 min 0,000 mm 2,0 UV-I 497 W/m 10,1 C 24,6 C 0,0 km/h (0 Bft) 0,00 %
18.08.2015 15:38 24,9 C 41 % 1014,2 hPa 0,0 l/m 1,4 km/h (1 Bft) N-NW 327 5 min 0,000 mm 3,0 UV-I 921 W/m 10,7 C 24,9 C 4,0 km/h (1 Bft) 0,00 %
18.08.2015 15:43 24,8 C 40 % 1014,2 hPa 0,0 l/m 0,0 km/h (0 Bft) N 350 5 min 0,000 mm 2,0 UV-I 915 W/m 10,3 C 24,8 C 0,0 km/h (0 Bft) 0,00 %
18.08.2015 15:48 24,7 C 41 % 1014,2 hPa 0,0 l/m 1,4 km/h (1 Bft) NO 56 5 min 0,000 mm 2,0 UV-I 851 W/m 10,6 C 24,7 C 4,0 km/h (1 Bft) 0,00 %
18.08.2015 15:53 24,3 C 43 % 1014,1 hPa 0,0 l/m 0,4 km/h (0 Bft) N-NO 29 5 min 0,000 mm 2,0 UV-I 854 W/m 10,9 C 24,3 C 4,0 km/h (1 Bft) 0,00 %
18.08.2015 15:58 23,9 C 43 % 1014,0 hPa 0,0 l/m 0,0 km/h (0 Bft) NO 34 5 min 0,000 mm 2,0 UV-I 813 W/m 10,5 C 23,9 C 0,0 km/h (0 Bft) 0,00 %
18.08.2015 16:03 23,8 C 42 % 1014,1 hPa 0,0 l/m 0,0 km/h (0 Bft) NO 43 5 min 0,000 mm 1,0 UV-I 521 W/m 10,1 C 23,8 C 0,0 km/h (0 Bft) 0,00 %
18.08.2015 16:08 23,8 C 43 % 1013,9 hPa 0,0 l/m 0,0 km/h (0 Bft) N-NO 26 5 min 0,000 mm 1,0 UV-I 790 W/m 10,5 C 23,8 C 0,0 km/h (0 Bft) 0,00 %
18.08.2015 16:13 23,7 C 41 % 1014,1 hPa 0,0 l/m 0,0 km/h (0 Bft) NO 41 5 min 0,000 mm 1,0 UV-I 778 W/m 9,7 C 23,7 C 0,0 km/h (0 Bft) 0,00 %
18.08.2015 16:18 24,0 C 40 % 1013,8 hPa 0,0 l/m 0,4 km/h (0 Bft) N-NW 344 5 min 0,000 mm 1,0 UV-I 806 W/m 9,6 C 24,0 C 4,0 km/h (1 Bft) 0,00 %
18.08.2015 16:23 24,1 C 40 % 1014,0 hPa 0,0 l/m 0,0 km/h (0 Bft) NO 34 5 min 0,000 mm 1,0 UV-I 810 W/m 9,6 C 24,1 C 0,0 km/h (0 Bft) 0,00 %
18.08.2015 16:28 24,0 C 41 % 1014,0 hPa 0,0 l/m 1,4 km/h (1 Bft) NO 48 5 min 0,000 mm 1,0 UV-I 840 W/m 9,9 C 24,0 C 4,0 km/h (1 Bft) 0,00 %
18.08.2015 16:33 24,1 C 41 % 1014,0 hPa 0,0 l/m 0,7 km/h (0 Bft) N-NW 334 5 min 0,000 mm 1,0 UV-I 808 W/m 10,0 C 24,1 C 4,0 km/h (1 Bft) 0,00 %
18.08.2015 16:38 24,1 C 40 % 1013,9 hPa 0,0 l/m 0,0 km/h (0 Bft) N-NO 29 5 min 0,000 mm 1,0 UV-I 782 W/m 9,6 C 24,1 C 0,0 km/h (0 Bft) 0,00 %
18.08.2015 16:43 23,9 C 42 % 1014,0 hPa 0,0 l/m 0,0 km/h (0 Bft) NO 36 5 min 0,000 mm 1,0 UV-I 792 W/m 10,2 C 23,9 C 0,0 km/h (0 Bft) 0,00 %
18.08.2015 16:48 23,8 C 43 % 1013,9 hPa 0,0 l/m 0,0 km/h (0 Bft) NO 55 5 min 0,000 mm 1,0 UV-I 771 W/m 10,5 C 23,8 C 0,0 km/h (0 Bft) 0,00 %
18.08.2015 16:53 23,8 C 43 % 1013,9 hPa 0,0 l/m 0,7 km/h (0 Bft) W-NW 283 5 min 0,000 mm 1,0 UV-I 749 W/m 10,5 C 23,8 C 4,0 km/h (1 Bft) 0,00 %
18.08.2015 16:58 23,8 C 42 % 1013,9 hPa 0,0 l/m 0,0 km/h (0 Bft) N-NO 30 5 min 0,000 mm 1,0 UV-I 777 W/m 10,1 C 23,8 C 0,0 km/h (0 Bft) 0,00 %
18.08.2015 17:03 23,8 C 44 % 1014,0 hPa 0,0 l/m 0,0 km/h (0 Bft) O-NO 61 5 min 0,000 mm 1,0 UV-I 790 W/m 10,8 C 23,8 C 0,0 km/h (0 Bft) 0,00 %
18.08.2015 17:08 23,9 C 41 % 1013,9 hPa 0,0 l/m 0,0 km/h (0 Bft) NO 49 5 min 0,000 mm 1,0 UV-I 727 W/m 9,8 C 23,9 C 0,0 km/h (0 Bft) 0,00 %
18.08.2015 17:13 23,8 C 43 % 1014,1 hPa 0,0 l/m 4,3 km/h (1 Bft) O-NO 75 5 min 0,000 mm 1,0 UV-I 739 W/m 10,5 C 23,8 C 7,9 km/h (2 Bft) 0,00 %
18.08.2015 17:18 23,4 C 43 % 1013,9 hPa 0,0 l/m 0,7 km/h (0 Bft) NW 319 5 min 0,000 mm 1,0 UV-I 687 W/m 10,1 C 23,4 C 4,0 km/h (1 Bft) 0,00 %
18.08.2015 17:23 23,1 C 43 % 1014,0 hPa 0,0 l/m 0,0 km/h (0 Bft) N 8 5 min 0,000 mm 1,0 UV-I 709 W/m 9,8 C 23,1 C 0,0 km/h (0 Bft) 0,00 %
18.08.2015 17:28 23,1 C 42 % 1013,9 hPa 0,0 l/m 0,4 km/h (0 Bft) W-NW 300 5 min 0,000 mm 1,0 UV-I 294 W/m 9,5 C 23,1 C 4,0 km/h (1 Bft) 0,00 %
18.08.2015 17:33 23,1 C 44 % 1014,0 hPa 0,0 l/m 4,7 km/h (1 Bft) NW 325 5 min 0,000 mm 1,0 UV-I 672 W/m 10,2 C 23,1 C 11,9 km/h (2 Bft) 0,00 %
18.08.2015 17:38 22,9 C 44 % 1014,1 hPa 0,0 l/m 0,0 km/h (0 Bft) N 355 5 min 0,000 mm 1,0 UV-I 645 W/m 10,0 C 22,9 C 0,0 km/h (0 Bft) 0,00 %
18.08.2015 17:43 22,9 C 42 % 1014,1 hPa 0,0 l/m 0,4 km/h (0 Bft) N 351 5 min 0,000 mm 1,0 UV-I 608 W/m 9,3 C 22,9 C 4,0 km/h (1 Bft) 0,00 %
18.08.2015 17:48 23,0 C 42 % 1014,0 hPa 0,0 l/m 0,0 km/h (0 Bft) NO 48 5 min 0,000 mm 1,0 UV-I 607 W/m 9,4 C 23,0 C 0,0 km/h (0 Bft) 0,00 %
18.08.2015 17:53 23,1 C 42 % 1013,9 hPa 0,0 l/m 2,2 km/h (1 Bft) NW 309 5 min 0,000 mm 1,0 UV-I 631 W/m 9,5 C 23,1 C 4,0 km/h (1 Bft) 0,00 %
18.08.2015 17:58 23,2 C 42 % 1014,0 hPa 0,0 l/m 0,0 km/h (0 Bft) N-NW 346 5 min 0,000 mm 1,0 UV-I 594 W/m 9,6 C 23,2 C 0,0 km/h (0 Bft) 0,00 %
18.08.2015 18:03 23,4 C 41 % 1014,1 hPa 0,0 l/m 0,0 km/h (0 Bft) N 352 5 min 0,000 mm 1,0 UV-I 594 W/m 9,4 C 23,4 C 0,0 km/h (0 Bft) 0,00 %
18.08.2015 18:08 23,8 C 40 % 1013,9 hPa 0,0 l/m 0,0 km/h (0 Bft) N-NO 31 5 min 0,000 mm 1,0 UV-I 558 W/m 9,4 C 23,8 C 0,0 km/h (0 Bft) 0,00 %
18.08.2015 18:13 24,1 C 40 % 1013,9 hPa 0,0 l/m 0,0 km/h (0 Bft) NO 56 5 min 0,000 mm 1,0 UV-I 611 W/m 9,6 C 24,1 C 0,0 km/h (0 Bft) 0,00 %
18.08.2015 18:18 24,2 C 40 % 1014,0 hPa 0,0 l/m 0,0 km/h (0 Bft) NO 41 5 min 0,000 mm 1,0 UV-I 597 W/m 9,7 C 24,2 C 0,0 km/h (0 Bft) 0,00 %
18.08.2015 18:23 24,0 C 41 % 1014,1 hPa 0,0 l/m 0,0 km/h (0 Bft) N-NO 30 5 min 0,000 mm 1,0 UV-I 554 W/m 9,9 C 24,0 C 0,0 km/h (0 Bft) 0,00 %
18.08.2015 18:28 23,8 C 41 % 1014,2 hPa 0,0 l/m 0,7 km/h (0 Bft) N 353 5 min 0,000 mm 1,0 UV-I 410 W/m 9,7 C 23,8 C 4,0 km/h (1 Bft) 0,00 %
18.08.2015 18:33 23,6 C 42 % 1014,1 hPa 0,0 l/m 0,7 km/h (0 Bft) N 5 5 min 0,000 mm 1,0 UV-I 443 W/m 9,9 C 23,6 C 4,0 km/h (1 Bft) 0,00 %
18.08.2015 18:38 23,3 C 42 % 1014,1 hPa 0,0 l/m 0,0 km/h (0 Bft) O-NO 60 5 min 0,000 mm 1,0 UV-I 430 W/m 9,7 C 23,3 C 0,0 km/h (0 Bft) 0,00 %
18.08.2015 18:43 23,1 C 42 % 1014,2 hPa 0,0 l/m 0,0 km/h (0 Bft) O-NO 62 5 min 0,000 mm 1,0 UV-I 412 W/m 9,5 C 23,1 C 0,0 km/h (0 Bft) 0,00 %
18.08.2015 18:48 23,0 C 42 % 1014,4 hPa 0,0 l/m 0,0 km/h (0 Bft) N-NO 27 5 min 0,000 mm 1,0 UV-I 400 W/m 9,4 C 23,0 C 0,0 km/h (0 Bft) 0,00 %
18.08.2015 18:53 23,1 C 41 % 1014,3 hPa 0,0 l/m 0,0 km/h (0 Bft) N-NO 28 5 min 0,000 mm 1,0 UV-I 378 W/m 9,1 C 23,1 C 0,0 km/h (0 Bft) 0,00 %
18.08.2015 18:58 23,2 C 41 % 1014,4 hPa 0,0 l/m 0,0 km/h (0 Bft) N 355 5 min 0,000 mm 1,0 UV-I 337 W/m 9,2 C 23,2 C 0,0 km/h (0 Bft) 0,00 %
18.08.2015 19:03 23,2 C 42 % 1014,4 hPa 0,0 l/m 0,0 km/h (0 Bft) N-NO 18 5 min 0,000 mm 0,0 UV-I 313 W/m 9,6 C 23,2 C 0,0 km/h (0 Bft) 0,00 %
18.08.2015 19:08 23,1 C 42 % 1014,4 hPa 0,0 l/m 0,0 km/h (0 Bft) NO 52 5 min 0,000 mm 0,0 UV-I 302 W/m 9,5 C 23,1 C 0,0 km/h (0 Bft) 0,00 %
18.08.2015 19:13 23,0 C 43 % 1014,3 hPa 0,0 l/m 0,0 km/h (0 Bft) N-NO 29 5 min 0,000 mm 0,0 UV-I 255 W/m 9,7 C 23,0 C 0,0 km/h (0 Bft) 0,00 %
18.08.2015 19:18 22,8 C 43 % 1014,3 hPa 0,0 l/m 0,0 km/h (0 Bft) N-NO 14 5 min 0,000 mm 0,0 UV-I 219 W/m 9,6 C 22,8 C 0,0 km/h (0 Bft) 0,00 %
18.08.2015 19:23 22,6 C 45 % 1014,5 hPa 0,0 l/m 0,0 km/h (0 Bft) N-NO 33 5 min 0,000 mm 0,0 UV-I 198 W/m 10,1 C 22,6 C 0,0 km/h (0 Bft) 0,00 %
18.08.2015 19:28 22,4 C 45 % 1014,3 hPa 0,0 l/m 0,0 km/h (0 Bft) NO 47 5 min 0,000 mm 0,0 UV-I 141 W/m 9,9 C 22,4 C 0,0 km/h (0 Bft) 0,00 %
18.08.2015 19:33 22,1 C 46 % 1014,4 hPa 0,0 l/m 0,0 km/h (0 Bft) NO 48 5 min 0,000 mm 0,0 UV-I 79 W/m 9,9 C 22,1 C 0,0 km/h (0 Bft) 0,00 %
18.08.2015 19:38 21,8 C 49 % 1014,4 hPa 0,0 l/m 0,0 km/h (0 Bft) O-NO 66 5 min 0,000 mm 0,0 UV-I 59 W/m 10,6 C 21,8 C 0,0 km/h (0 Bft) 0,00 %
18.08.2015 19:43 21,2 C 50 % 1014,4 hPa 0,0 l/m 0,0 km/h (0 Bft) NO 40 5 min 0,000 mm 0,0 UV-I 47 W/m 10,4 C 21,2 C 0,0 km/h (0 Bft) 0,00 %
18.08.2015 19:48 20,7 C 51 % 1014,5 hPa 0,0 l/m 0,0 km/h (0 Bft) NO 42 5 min 0,000 mm 0,0 UV-I 34 W/m 10,2 C 20,7 C 0,0 km/h (0 Bft) 0,00 %
18.08.2015 19:53 20,2 C 54 % 1014,4 hPa 0,0 l/m 0,0 km/h (0 Bft) NO 47 5 min 0,000 mm 0,0 UV-I 26 W/m 10,6 C 20,2 C 0,0 km/h (0 Bft) 0,00 %
18.08.2015 19:58 19,7 C 54 % 1014,6 hPa 0,0 l/m 0,0 km/h (0 Bft) NO 41 5 min 0,000 mm 0,0 UV-I 18 W/m 10,1 C 19,7 C 0,0 km/h (0 Bft) 0,00 %
18.08.2015 20:03 19,3 C 55 % 1014,7 hPa 0,0 l/m 0,0 km/h (0 Bft) N 8 0 min 0,000 mm 0,0 UV-I 8 W/m 10,0 C 19,3 C 0,0 km/h (0 Bft) 0,00 %
18.08.2015 20:08 18,9 C 56 % 1014,6 hPa 0,0 l/m 0,0 km/h (0 Bft) NO 54 0 min 0,000 mm 0,0 UV-I 3 W/m 9,9 C 18,9 C 0,0 km/h (0 Bft) 0,00 %
18.08.2015 20:13 18,6 C 57 % 1014,7 hPa 0,0 l/m 0,0 km/h (0 Bft) O 92 0 min 0,000 mm 0,0 UV-I 0 W/m 9,9 C 18,6 C 0,0 km/h (0 Bft) 0,00 %
18.08.2015 20:18 18,4 C 58 % 1014,9 hPa 0,0 l/m 0,0 km/h (0 Bft) NO 40 0 min 0,000 mm 0,0 UV-I 0 W/m 10,0 C 18,4 C 0,0 km/h (0 Bft) 0,00 %
18.08.2015 20:23 18,1 C 60 % 1014,8 hPa 0,0 l/m 0,0 km/h (0 Bft) NO 45 0 min 0,000 mm 0,0 UV-I 0 W/m 10,2 C 18,1 C 0,0 km/h (0 Bft) 0,00 %
18.08.2015 20:28 17,8 C 60 % 1015,0 hPa 0,0 l/m 0,0 km/h (0 Bft) NO 42 0 min 0,000 mm 0,0 UV-I 0 W/m 9,9 C 17,8 C 0,0 km/h (0 Bft) 0,00 %
18.08.2015 20:33 17,6 C 60 % 1014,8 hPa 0,0 l/m 0,0 km/h (0 Bft) O-NO 77 0 min 0,000 mm 0,0 UV-I 0 W/m 9,7 C 17,6 C 0,0 km/h (0 Bft) 0,00 %
18.08.2015 20:38 17,5 C 62 % 1015,0 hPa 0,0 l/m 0,0 km/h (0 Bft) NO 56 0 min 0,000 mm 0,0 UV-I 0 W/m 10,1 C 17,5 C 0,0 km/h (0 Bft) 0,00 %
18.08.2015 20:43 17,4 C 62 % 1014,9 hPa 0,0 l/m 0,0 km/h (0 Bft) O-NO 71 0 min 0,000 mm 0,0 UV-I 0 W/m 10,0 C 17,4 C 0,0 km/h (0 Bft) 0,00 %
18.08.2015 20:48 17,2 C 62 % 1015,0 hPa 0,0 l/m 0,0 km/h (0 Bft) O-NO 64 0 min 0,000 mm 0,0 UV-I 0 W/m 9,9 C 17,2 C 0,0 km/h (0 Bft) 0,00 %
18.08.2015 20:53 17,1 C 63 % 1015,2 hPa 0,0 l/m 0,0 km/h (0 Bft) O-NO 70 0 min 0,000 mm 0,0 UV-I 0 W/m 10,0 C 17,1 C 0,0 km/h (0 Bft) 0,00 %
18.08.2015 20:58 16,9 C 66 % 1015,0 hPa 0,0 l/m 0,0 km/h (0 Bft) O-NO 70 0 min 0,000 mm 0,0 UV-I 0 W/m 10,5 C 16,9 C 0,0 km/h (0 Bft) 0,00 %
18.08.2015 21:03 16,7 C 68 % 1014,9 hPa 0,0 l/m 0,0 km/h (0 Bft) O-NO 71 0 min 0,000 mm 0,0 UV-I 0 W/m 10,8 C 16,7 C 0,0 km/h (0 Bft) 0,00 %
18.08.2015 21:08 16,4 C 69 % 1015,2 hPa 0,0 l/m 0,0 km/h (0 Bft) O-NO 70 0 min 0,000 mm 0,0 UV-I 0 W/m 10,7 C 16,4 C 0,0 km/h (0 Bft) 0,00 %
18.08.2015 21:13 16,2 C 70 % 1015,0 hPa 0,0 l/m 0,0 km/h (0 Bft) O-NO 70 0 min 0,000 mm 0,0 UV-I 0 W/m 10,7 C 16,2 C 0,0 km/h (0 Bft) 0,00 %
18.08.2015 21:18 16,0 C 71 % 1015,0 hPa 0,0 l/m 0,0 km/h (0 Bft) O-NO 70 0 min 0,000 mm 0,0 UV-I 0 W/m 10,7 C 16,0 C 0,0 km/h (0 Bft) 0,00 %
18.08.2015 21:23 15,8 C 72 % 1015,2 hPa 0,0 l/m 0,0 km/h (0 Bft) O-NO 70 0 min 0,000 mm 0,0 UV-I 0 W/m 10,8 C 15,8 C 0,0 km/h (0 Bft) 0,00 %
18.08.2015 21:28 15,6 C 71 % 1015,2 hPa 0,0 l/m 0,0 km/h (0 Bft) O-NO 70 0 min 0,000 mm 0,0 UV-I 0 W/m 10,4 C 15,6 C 0,0 km/h (0 Bft) 0,00 %
18.08.2015 21:33 15,4 C 72 % 1015,1 hPa 0,0 l/m 0,0 km/h (0 Bft) O-NO 70 0 min 0,000 mm 0,0 UV-I 0 W/m 10,4 C 15,4 C 0,0 km/h (0 Bft) 0,00 %
18.08.2015 21:38 15,2 C 75 % 1015,1 hPa 0,0 l/m 0,0 km/h (0 Bft) O-NO 70 0 min 0,000 mm 0,0 UV-I 0 W/m 10,8 C 15,2 C 0,0 km/h (0 Bft) 0,00 %
18.08.2015 21:43 15,0 C 77 % 1015,2 hPa 0,0 l/m 0,0 km/h (0 Bft) O-NO 70 0 min 0,000 mm 0,0 UV-I 0 W/m 11,0 C 15,0 C 0,0 km/h (0 Bft) 0,00 %
18.08.2015 21:48 14,9 C 74 % 1015,2 hPa 0,0 l/m 0,0 km/h (0 Bft) O-NO 70 0 min 0,000 mm 0,0 UV-I 0 W/m 10,3 C 14,9 C 0,0 km/h (0 Bft) 0,00 %
18.08.2015 21:53 14,7 C 73 % 1015,1 hPa 0,0 l/m 0,0 km/h (0 Bft) O-NO 70 0 min 0,000 mm 0,0 UV-I 0 W/m 9,9 C 14,7 C 0,0 km/h (0 Bft) 0,00 %
18.08.2015 21:58 14,6 C 75 % 1015,2 hPa 0,0 l/m 0,0 km/h (0 Bft) O-NO 69 0 min 0,000 mm 0,0 UV-I 0 W/m 10,2 C 14,6 C 0,0 km/h (0 Bft) 0,00 %
18.08.2015 22:03 14,5 C 78 % 1015,3 hPa 0,0 l/m 0,0 km/h (0 Bft) O-NO 69 0 min 0,000 mm 0,0 UV-I 0 W/m 10,7 C 14,5 C 0,0 km/h (0 Bft) 0,00 %
18.08.2015 22:08 14,5 C 79 % 1015,3 hPa 0,0 l/m 0,0 km/h (0 Bft) O-NO 69 0 min 0,000 mm 0,0 UV-I 0 W/m 10,9 C 14,5 C 0,0 km/h (0 Bft) 0,00 %
18.08.2015 22:13 14,4 C 80 % 1015,2 hPa 0,0 l/m 0,0 km/h (0 Bft) O-NO 69 0 min 0,000 mm 0,0 UV-I 0 W/m 11,0 C 14,4 C 0,0 km/h (0 Bft) 0,00 %
18.08.2015 22:18 14,3 C 80 % 1015,1 hPa 0,0 l/m 0,0 km/h (0 Bft) O-NO 69 0 min 0,000 mm 0,0 UV-I 0 W/m 10,9 C 14,3 C 0,0 km/h (0 Bft) 0,00 %
18.08.2015 22:23 14,1 C 81 % 1015,5 hPa 0,0 l/m 0,0 km/h (0 Bft) O-NO 69 0 min 0,000 mm 0,0 UV-I 0 W/m 10,9 C 14,1 C 0,0 km/h (0 Bft) 0,00 %
18.08.2015 22:28 14,0 C 81 % 1015,4 hPa 0,0 l/m 0,0 km/h (0 Bft) O-NO 69 0 min 0,000 mm 0,0 UV-I 0 W/m 10,8 C 14,0 C 0,0 km/h (0 Bft) 0,00 %
18.08.2015 22:33 13,8 C 82 % 1015,3 hPa 0,0 l/m 0,0 km/h (0 Bft) O-NO 69 0 min 0,000 mm 0,0 UV-I 0 W/m 10,8 C 13,8 C 0,0 km/h (0 Bft) 0,00 %
18.08.2015 22:38 13,7 C 82 % 1015,5 hPa 0,0 l/m 0,0 km/h (0 Bft) O-NO 70 0 min 0,000 mm 0,0 UV-I 0 W/m 10,7 C 13,7 C 0,0 km/h (0 Bft) 0,00 %
18.08.2015 22:43 13,4 C 81 % 1015,3 hPa 0,0 l/m 0,0 km/h (0 Bft) O-NO 77 0 min 0,000 mm 0,0 UV-I 0 W/m 10,2 C 13,4 C 0,0 km/h (0 Bft) 0,00 %
18.08.2015 22:48 13,4 C 80 % 1015,3 hPa 0,0 l/m 0,0 km/h (0 Bft) O-NO 68 0 min 0,000 mm 0,0 UV-I 0 W/m 10,0 C 13,4 C 0,0 km/h (0 Bft) 0,00 %
18.08.2015 22:53 13,4 C 80 % 1015,5 hPa 0,0 l/m 0,0 km/h (0 Bft) O-NO 68 0 min 0,000 mm 0,0 UV-I 0 W/m 10,0 C 13,4 C 0,0 km/h (0 Bft) 0,00 %
18.08.2015 22:58 13,4 C 81 % 1015,7 hPa 0,0 l/m 0,0 km/h (0 Bft) O-NO 68 0 min 0,000 mm 0,0 UV-I 0 W/m 10,2 C 13,4 C 0,0 km/h (0 Bft) 0,00 %
18.08.2015 23:03 13,4 C 81 % 1015,6 hPa 0,0 l/m 0,0 km/h (0 Bft) O-NO 68 0 min 0,000 mm 0,0 UV-I 0 W/m 10,2 C 13,4 C 0,0 km/h (0 Bft) 0,00 %
18.08.2015 23:08 13,3 C 81 % 1015,5 hPa 0,0 l/m 0,0 km/h (0 Bft) O-NO 68 0 min 0,000 mm 0,0 UV-I 0 W/m 10,1 C 13,3 C 0,0 km/h (0 Bft) 0,00 %
18.08.2015 23:13 13,3 C 82 % 1015,8 hPa 0,0 l/m 0,0 km/h (0 Bft) O-NO 68 0 min 0,000 mm 0,0 UV-I 0 W/m 10,3 C 13,3 C 0,0 km/h (0 Bft) 0,00 %
18.08.2015 23:18 13,2 C 82 % 1015,7 hPa 0,0 l/m 0,0 km/h (0 Bft) O-NO 68 0 min 0,000 mm 0,0 UV-I 0 W/m 10,2 C 13,2 C 0,0 km/h (0 Bft) 0,00 %
18.08.2015 23:23 13,2 C 82 % 1015,8 hPa 0,0 l/m 0,0 km/h (0 Bft) O-NO 68 0 min 0,000 mm 0,0 UV-I 0 W/m 10,2 C 13,2 C 0,0 km/h (0 Bft) 0,00 %
18.08.2015 23:28 13,1 C 84 % 1015,8 hPa 0,0 l/m 0,0 km/h (0 Bft) O-NO 68 0 min 0,000 mm 0,0 UV-I 0 W/m 10,5 C 13,1 C 0,0 km/h (0 Bft) 0,00 %
18.08.2015 23:33 13,0 C 84 % 1016,0 hPa 0,0 l/m 0,0 km/h (0 Bft) O-NO 68 0 min 0,000 mm 0,0 UV-I 0 W/m 10,4 C 13,0 C 0,0 km/h (0 Bft) 0,00 %
18.08.2015 23:38 12,8 C 85 % 1015,9 hPa 0,0 l/m 0,0 km/h (0 Bft) O-NO 68 0 min 0,000 mm 0,0 UV-I 0 W/m 10,3 C 12,8 C 0,0 km/h (0 Bft) 0,00 %
18.08.2015 23:43 12,8 C 85 % 1015,8 hPa 0,0 l/m 0,0 km/h (0 Bft) O-NO 68 0 min 0,000 mm 0,0 UV-I 0 W/m 10,3 C 12,8 C 0,0 km/h (0 Bft) 0,00 %
18.08.2015 23:48 12,7 C 85 % 1015,9 hPa 0,0 l/m 0,0 km/h (0 Bft) O-NO 68 0 min 0,000 mm 0,0 UV-I 0 W/m 10,2 C 12,7 C 0,0 km/h (0 Bft) 0,00 %
18.08.2015 23:53 12,6 C 86 % 1016,0 hPa 0,0 l/m 0,0 km/h (0 Bft) N-NO 23 0 min 0,000 mm 0,0 UV-I 0 W/m 10,3 C 12,6 C 0,0 km/h (0 Bft) 0,00 %
18.08.2015 23:58 12,5 C 86 % 1016,3 hPa 0,0 l/m 0,0 km/h (0 Bft) N-NO 23 0 min 0,000 mm 0,0 UV-I 0 W/m 10,2 C 12,5 C 0,0 km/h (0 Bft) 0,00 %
_ Min-Zeit 23:58 15:33 00:02 - 00:02 - - - - - - 18:53 23:58 00:02 00:02
Minimum _ 12,5 C 40 % 1013,0 hPa - 0,0 km/h (0 Bft) - - - - - - 9,1 C 12,5 C 0,0 km/h (0 Bft) 0,00 %
_ Max-Zeit 15:18 04:47 23:58 00:02 00:32 - - 08:27 00:02 14:03 15:28 08:07 15:18 17:33 00:02
Maximum _ 24,9 C 93 % 1016,3 hPa 0,0 l/m 5,8 km/h
W-SW (2 Bft)
- - 5 min 0,000 mm 4,0 UV-I 987 W/m 13,2 C 24,9 C 11,9 km/h
NW (2 Bft)
0,00 %
Durchschnitt _ 18,1 C 68 % 1014,2 hPa #0,0 l/m 0,4 km/h (0 Bft) W-SW - #8:55 h #0,000 mm 1,7 UV-I 427 W/m 11,4 C 18,1 C 1,2 km/h (1 Bft) 0,00 %